Location: *
(32.8140°S, 174.6161°E)
Time: 07:10:50
(UTC+00:00)

BREEZE-M DEB (TANK) - Pass Details

Date: 10 December 2019
Orbit: 284 x 13978 km, 46.1° (Epoch: 18 January)

Event Time Altitude Azimuth Distance (km) Brightness Sun altitude
Exits shadow 14:33:42 22° 78° (ENE) 1,090 4.0 -25.1°
Drops below altitude 10° 14:36:36 10° 111° (ESE) 2,304 6.2 -24.7°
Sets 14:41:06 0° 122° (ESE) 4,439 8.1 -24.2°
